Weather History for San Jose, Guatemala

Change the Weather History Date:

Sunday, November 4, 2012

  Actual Average Record
Temperature  
Mean Temperature 80 °F -  
Max Temperature 91 °F 86 °F 91 °F (1997)
Min Temperature 69 °F 69 °F 68 °F (1999)
Cooling Degree Days 15    
Growing Degree Days 30 (Base 50)    
Moisture  
Dew Point 73 °F    
Average Humidity 80    
Maximum Humidity 100    
Minimum Humidity 41    
Precipitation  
Precipitation 0.00 in - - ()
Sea Level Pressure  
Sea Level Pressure 29.88 in    
Wind  
Wind Speed 2 mph ()    
Max Wind Speed 12 mph    
Max Gust Speed -    
Visibility 5.7 miles    
Events Thunderstorm    
Averages and records for this station are not official NWS values.
T = Trace of Precipitation, MM = Missing Value Source: Averaged Metar Reports

Daily Weather History Graph

Daily Weather History Graph

Search for Another Location

Airport:

Trip Planner

Search our weather history database for the weather conditions in past years. The results will help you decide how hot, cold, wet, or windy it might be!

Date:

Astronomy

Nov. 04, 2012 Rise Set
Actual Time 5:59 AM CST 5:34 PM CST
Civil Twilight 5:37 AM CST 5:56 PM CST
Nautical Twilight 5:11 AM CST 6:21 PM CST
Astronomical Twilight 4:46 AM CST 6:47 PM CST
Moon 10:19 PM CST (11/4) 10:33 AM CST (11/4)
Length of Visible Light 12h 19m
Length of Day
11h 35m
Waning Gibbous, 72% of the Moon is Illuminated
Nov 4
Waning Gibbous
Nov 6
Last Quarter
Nov 13
New
Nov 20
First Quarter
Nov 28
Full

Hourly Weather History & Observations

Time (CST) Temp. Heat Index Dew Point Humidity Pressure Visibility Wind Dir Wind Speed Gust Speed Precip Events Conditions
12:00 AM 73.4 °F - 73.4 °F 100% 29.92 in 5.0 mi Calm Calm - N/A   Clear
1:00 AM 73.4 °F - 71.6 °F 94% 29.89 in 5.0 mi Calm Calm - N/A   Clear
2:00 AM 73.4 °F - 71.6 °F 94% 29.86 in 5.0 mi Calm Calm - N/A   Clear
3:00 AM 73.4 °F - 71.6 °F 94% 29.86 in 5.0 mi Calm Calm - N/A   Clear
4:00 AM 71.6 °F - 71.6 °F 100% 29.86 in 5.0 mi Calm Calm - N/A   Clear
5:00 AM 71.6 °F - 71.6 °F 100% 29.86 in - Calm Calm - N/A   Clear
6:00 AM 70 °F - 69 °F 97% 29.86 in 25 mi Calm Calm - -   Partly Cloudy
6:00 AM 69.8 °F - 69.8 °F 100% 29.86 in - Calm Calm - N/A   Clear
7:00 AM 71.6 °F - 69.8 °F 94% 29.89 in - Calm Calm - N/A   Clear
8:00 AM 77.0 °F - 73.4 °F 89% 29.89 in - Calm Calm - N/A   Clear
9:00 AM 84.2 °F 92.3 °F 75.2 °F 74% 29.89 in - WSW 6.9 mph - N/A   Clear
10:00 AM 87.8 °F 92.6 °F 69.8 °F 55% 29.92 in - SE 4.6 mph - N/A   Clear
11:00 AM 91.4 °F 95.4 °F 68.0 °F 46% 29.89 in - ESE 11.5 mph - N/A   Clear
12:00 PM 91 °F - 70 °F 41% 29.87 in 25 mi SE 4.6 mph - -   Clear
12:00 PM 91.4 °F 96.8 °F 69.8 °F 49% 29.86 in - SE 4.6 mph - N/A   Clear
1:00 PM 91.4 °F 100.1 °F 73.4 °F 55% 29.86 in 6.2 mi SSE 11.5 mph - N/A   Scattered Clouds
2:00 PM 91.4 °F 102.5 °F 75.2 °F 59% 29.83 in 6.2 mi South 4.6 mph - N/A   Scattered Clouds
3:00 PM 89.6 °F 102.2 °F 77.0 °F 66% 29.83 in 6.2 mi SSW 6.9 mph - N/A   Partly Cloudy
4:00 PM 89.6 °F 102.2 °F 77.0 °F 66% 29.83 in 6.2 mi SSW 9.2 mph - N/A   Partly Cloudy
5:00 PM 87.8 °F 97.6 °F 75.2 °F 66% 29.83 in 6.2 mi South 4.6 mph - N/A   Partly Cloudy
6:00 PM 84.2 °F 92.3 °F 75.2 °F 74% 29.86 in 6.2 mi Calm Calm - N/A Thunderstorm Thunderstorm
7:00 PM 80.6 °F 88.1 °F 78.8 °F 94% 29.89 in 6.2 mi Calm Calm - N/A Thunderstorm Thunderstorm
8:00 PM 78.8 °F - 77.0 °F 94% 29.92 in - Calm Calm - N/A   Clear
9:00 PM 78.8 °F - 77.0 °F 94% 29.95 in - Calm Calm - N/A   Clear
10:00 PM 77.0 °F - 75.2 °F 94% 29.92 in - Calm Calm - N/A   Clear
11:00 PM 77.0 °F - 75.2 °F 94% 29.95 in - Calm Calm - N/A   Clear